Flag for China Weather past 2 weeks in Taiyuan, Shanxi, China

Now
82 °F

Passing clouds.


Feels Like: 81 °F
Forecast: 59 / 82 °F
Wind: 8 mph from East

Location: Taiyuan Airport

Current Time: Aug 28, 2015 at 6:34:01 PM

Latest Report: Aug 28, 2015 at 6:00 PM


Visibility: N/A

Pressure: 29.80 "Hg (27.24 "Hg at 790m altitude)

Humidity: 28%

Dew point: 46 °F

Location of TaiyuanLocation

Historic Weather in Taiyuan — Graph

°F

Taiyuan temperature yesterday

Maximum temperature yesterday: 84 °F (at 3:00 PM)
Minimum temperature yesterday: 57 °F (at 5:30 AM)
Average temperature yesterday: 71 °F

Past Weeks' High & Low Weather Summary

 TemperatureHumidityPressure
High90 °F (Aug 16, 4:00 PM)94% (Aug 14, 6:30 AM)29.98 "Hg (Aug 14, 6:30 AM)
Low57 °F (Aug 21, 4:30 AM)17% (Aug 22, 3:00 PM)29.74 "Hg (Aug 13, 5:00 PM)
Average73 °F57%29.88 "Hg
* Reported Aug 13 5:00 PM — Aug 28 5:30 PM, Taiyuan, Weather by CustomWeather, © 2015

Note: Actual official high and low records may vary slightly from our data, if they occured in-between our weather recording intervals... More about our weather records

Advertising

Taiyuan weather history for previous 24 hours

 ConditionsComfort  
Time TempWeatherWind HumidityBarometerVisibility
5:30 PM
Fri, Aug 28
82 °FPassing clouds.8 mph30%29.80 "HgN/A
5:00 PM84 °FPassing clouds.8 mph29%29.77 "HgN/A
4:30 PM86 °FPassing clouds.6 mph27%29.80 "HgN/A
4:00 PM88 °FScattered clouds.1 mph24%29.80 "HgN/A
3:30 PM88 °FScattered clouds.3 mph24%29.80 "HgN/A
3:00 PM86 °FScattered clouds.3 mph25%29.80 "HgN/A
2:30 PM86 °FScattered clouds.6 mph27%29.80 "HgN/A
2:00 PM86 °FScattered clouds.3 mph29%29.83 "HgN/A
1:30 PM84 °FPassing clouds.6 mph33%29.83 "HgN/A
1:00 PM82 °FPassing clouds.6 mph37%29.86 "HgN/A
12:30 PM82 °FPassing clouds.3 mph37%29.86 "HgN/A
12:00 PM79 °FPassing clouds.3 mph42%29.89 "HgN/A
11:30 AM79 °FSunny.3 mph42%29.89 "Hg10 mi
11:00 AM77 °FSunny.3 mph44%29.92 "Hg10 mi
10:30 AM75 °FSunny.1 mph47%29.92 "Hg10 mi
10:00 AM73 °FSunny.1 mph53%29.92 "Hg10 mi
9:30 AM72 °FSunny.1 mph57%29.92 "Hg10 mi
9:00 AM70 °FSunny.1 mph60%29.92 "Hg10 mi
8:30 AM68 °FSunny.1 mph69%29.92 "Hg10 mi
8:00 AM66 °FSunny.1 mph73%29.92 "Hg10 mi
7:30 AM64 °FSunny.1 mph78%29.92 "Hg10 mi
7:00 AM63 °FSunny.No wind83%29.92 "Hg10 mi
6:30 AM57 °FSunny.1 mph94%29.92 "Hg10 mi
6:00 AM57 °FSunny.1 mph88%29.92 "Hg10 mi
5:30 AM59 °FClear.1 mph88%29.92 "Hg10 mi
5:00 AM59 °FClear.1 mph82%29.92 "Hg10 mi
4:30 AM59 °FClear.1 mph88%29.92 "Hg10 mi
4:00 AM61 °FClear.1 mph83%29.92 "Hg10 mi
3:30 AM61 °FClear.1 mph83%29.92 "Hg10 mi
3:00 AM63 °FClear.1 mph77%29.92 "Hg10 mi
2:30 AM61 °FClear.1 mph83%29.92 "Hg10 mi
1:30 AM64 °FClear.1 mph73%29.95 "Hg10 mi
1:00 AM64 °FClear.3 mph73%29.95 "Hg10 mi
12:30 AM64 °FClear.3 mph73%29.95 "Hg10 mi
12:00 AM64 °FClear.3 mph73%29.95 "Hg10 mi
11:30 PM
Thu, Aug 27
64 °FClear.1 mph78%29.95 "Hg10 mi
11:00 PM66 °FClear.No wind64%29.95 "Hg10 mi
10:30 PM68 °FClear.1 mph60%29.95 "Hg10 mi
10:00 PM72 °FPassing clouds.6 mph50%29.95 "HgN/A
9:30 PM72 °FPassing clouds.10 mph50%29.95 "HgN/A
9:00 PM72 °FPassing clouds.13 mph47%29.92 "HgN/A
8:30 PM72 °FPassing clouds.10 mph50%29.92 "HgN/A
8:00 PM72 °FPassing clouds.10 mph50%29.92 "HgN/A
7:30 PM73 °FPassing clouds.10 mph47%29.89 "HgN/A
7:00 PM75 °FPartly sunny.13 mph44%29.89 "HgN/A
6:30 PM79 °FSprinkles. Partly sunny.3 mph45%29.89 "HgN/A
6:00 PM81 °FPartly sunny.1 mph34%29.86 "HgN/A
Weather by CustomWeather, © 2015

See weather overviewHow to use our weather pages